Simultaneous Nadir Overpasses (SNOs) Predictions

Prediction of SNOs between GOES-14 and AQUA Satellite Orbit:

Table of predicted SNOs for the next 14.0 days since TLE Epoch: 9/25/2020
Index Date Time (GOES-14) GOES-14 Lat,Lon AQUA Lat,Lon Distance(km) Time Diff (sec)
1 09/27/2020 20:26:41 -0.29,-104.41 0.13,-102.45 223.14 80
2 09/28/2020 08:47:56 0.27,-104.41 0.97,-107.61 363.83 80
3 09/30/2020 08:35:44 0.27,-104.41 0.36,-104.65 28.52 80
4 10/02/2020 08:20:52 0.28,-104.40 -0.26,-101.69 307.37 80
5 10/02/2020 20:42:17 -0.26,-104.39 -0.79,-106.89 285.20 80
6 10/04/2020 20:32:45 -0.26,-104.39 -0.16,-103.94 51.11 80
7 10/06/2020 20:20:33 -0.26,-104.39 0.47,-100.98 387.44 80
8 10/07/2020 08:41:48 0.24,-104.42 0.59,-106.15 195.70 80
9 10/09/2020 08:26:56 0.24,-104.41 -0.04,-103.19 139.41 80
